Regional Weather Roundup
Issued by NWS

Home | Current Version | Previous Version | Graphics & Text | Print | Product List | Glossary On
Versions: 1 2 3 4 5 6 7 8 9 10 11 12 13 14 15 16 17 18 19 20 21 22 23 24 25 26 27 28 29 30 31 32 33 34 35 36 37 38 39 40 41 42 43 44 45 46 47 48 49 50
000
ASUS45 KPSR 191910
RWRAZ

ARIZONA REGIONAL HOURLY WEATHER ROUNDUP
NATIONAL WEATHER SERVICE PHOENIX AZ
1200 PM MST FRI SEP 19 2014

NOTE: FAIR INDICATES FEW OR NO CLOUDS BELOW 12,000 FEET WITH NO
SIGNIFICANT WEATHER AND/OR OBSTRUCTIONS TO VISIBILITY.

AZZ001>003-036-192000-
NORTHWEST ARIZONA

CITY           SKY/WX    TMP DP  RH WIND       PRES   REMARKS
BULLHEAD CITY  SUNNY     95  50  21 S12       29.80F
KINGMAN        SUNNY     87  45  23 MISG      29.97F
$$

AZZ004>008-015-016-018-192000-
NORTH CENTRAL ARIZONA

CITY           SKY/WX    TMP DP  RH WIND       PRES   REMARKS
GRAND CANYON   MOSUNNY   75  52  44 VRB3      30.18F
PRESCOTT       MOSUNNY   81  52  36 CALM      30.08F
FLAGSTAFF      CLOUDY    65  55  70 NW7       30.22R
PAYSON         PTSUNNY   77  63  61 W7G14     30.10F
PAGE           MOSUNNY   88  45  22 N8        30.00F
$$

AZZ009>014-017-192000-
NORTHEAST ARIZONA

CITY           SKY/WX    TMP DP  RH WIND       PRES   REMARKS
WINSLOW        SUNNY     83  57  41 CALM      30.05F
SAINT JOHNS    SUNNY     79  54  41 VRB6      30.10F
WINDOW ROCK    MOSUNNY   77  43  29 VRB3      30.15F
SHOW LOW       MOSUNNY   73  50  43 E8        30.17F
$$

AZZ023-192000-
GREATER PHOENIX AREA

CITY           SKY/WX    TMP DP  RH WIND       PRES   REMARKS
PHOENIX        MOSUNNY   92  66  42 VRB6      29.81F
BUCKEYE          N/A     90  63  40 S3        29.84F
GLENDALE       MOSUNNY   91  64  40 S6        29.85F
LUKE AFB       SUNNY     91  68  47 VRB2      29.82F
DEER VALLEY    PTSUNNY   89  67  47 VRB5      29.84F
SCOTTSDALE     MOSUNNY   90  68  48 S5        29.86F
MESA-FALCON    MOSUNNY   90  68  48 SE6       29.83
CHANDLER       PTSUNNY   90  70  51 CALM      29.84F
$$

AZZ027-028-192000-
SOUTHWEST MARICOPA COUNTY AND PINAL COUNTY

CITY           SKY/WX    TMP DP  RH WIND       PRES   REMARKS
CASA GRANDE    PTSUNNY   90  68  48 NW3       29.85F
GILA BEND      MOCLDY    91  61  35 W5        29.85F
$$

AZZ503-504-507>509-192000-
SOUTHEAST ARIZONA

CITY           SKY/WX    TMP DP  RH WIND       PRES   REMARKS
TUCSON         MOSUNNY   85  68  56 VRB3      29.95F
DAVIS-MONTHAN  SUNNY     83  68  59 W1        29.93F
RYAN FIELD       N/A     84  70  61 NW3       29.93F
NOGALES        MOSUNNY   81  64  56 VRB5      30.00F
SIERRA VISTA   PTSUNNY   75  63  64 VRB6      30.06F
DOUGLAS        MOSUNNY   79  64  60 VRB5      30.01F
SAFFORD        MOSUNNY   82  63  52 MISG      29.94F
$$

AZZ020-021-025-026-031-192000-
SOUTHWEST ARIZONA

CITY           SKY/WX    TMP DP  RH WIND       PRES   REMARKS
YUMA           MOSUNNY   95  52  23 NW10      29.79F
$$

CAZ031-033-041-043-047-048-061-192000-
SOUTHERN CALIFORNIA

CITY           SKY/WX    TMP DP  RH WIND       PRES   REMARKS
DOWNTOWN L.A.  PTSUNNY   80  61  52 VRB3      29.88F
L.A. AIRPORT   MOSUNNY   75  62  64 W8        29.90F
SAN DIEGO      MOSUNNY   77  61  57 NW9       29.91F
BURBANK        PTSUNNY   76  59  55 VRB6      29.90F
ONTARIO        PTSUNNY   77  58  51 SW7       29.91F
RIVERSIDE      SUNNY     77  59  53 CALM      29.90F
PALM SPRINGS   SUNNY     92  55  28 N8        29.81F
EL CENTRO NAS  MOSUNNY   94  53  25 SW8       29.77F
IMPERIAL       SUNNY     94  55  26 VRB5      29.77F
BLYTHE         SUNNY     92  57  30 CALM      29.80F
NEEDLES        SUNNY     96  51  21 N5        29.81F
$$

NVZ020-UTZ003-192000-
SOUTHERN NEVADA-UTAH

CITY           SKY/WX    TMP DP  RH WIND       PRES   REMARKS
LAS VEGAS      MOSUNNY   90  46  21 CALM      29.85F
SALT LAKE CITY MOSUNNY   77  53  43 NW6       30.05S
$$

NMZ009-TXZ055-192000-
NEW MEXICO-WEST TEXAS

CITY           SKY/WX    TMP DP  RH WIND       PRES   REMARKS
ALBUQUERQUE    MOSUNNY   78  53  41 SE6       30.07F
EL PASO        PTSUNNY   78  63  59 SW8       29.99F
$$


........................KEY........................
SKY/WX - SKY CONDITION/WEATHER
TMP    - TEMPERATURE IN FAHRENHEIT
DP     - DEW POINT IN FAHRENHEIT
RH     - RELATIVE HUMIDITY IN PERCENT
WIND   - DIRECTION AND SPEED IN MILES PER HOUR (MPH)
VRB    - VARIABLE WIND DIRECTION
PRES   - MEAN SEA LEVEL PRESSURE IN INCHES OF MERCURY
         F - FALLING PRESSURE   R - RISING PRESSURE
         S - STEADY PRESSURE
VSB    - VISIBILITY IN MILES
HX     - HEAT INDEX IN FAHRENHEIT
WCI    - WIND CHILL INDEX IN FAHRENHEIT
TC     - TEMPERATURE IN CELSIUS WHICH IS ALSO KNOWN AS
         TEMPERATURE IN CENTIGRADE
AFB    - AIR FORCE BASE
         LUKE AFB IS LUKE AIR FORCE BASE
         DAVIS-MONTHAN IS DAVIS-MONTHAN AIR FORCE BASE
NAS    - NAVAL AIR STATION
         EL CENTRO NAS IS EL CENTRO NAVAL AIR STATION
N/A    - NOT AVAILABLE


USA.gov is the U.S. government's official web portal to all federal, state and local government web resources and services.